Flag for India Weather past 2 weeks in Thiruvananthapuram, Kerala, India

Now
86 °F

Thunderstorms. Scattered clouds.


Feels Like: 97 °F
Forecast: 80 / 89 °F
Wind: 5 mph from Northwest

Location: Thiruvananthapuram

Current Time: May 4, 2015 at 4:40:10 PM

Latest Report: May 4, 2015 at 4:10 PM


Visibility: 2 mi

Pressure: 29.71 "Hg

Humidity: 75%

Dew point: 77 °F

Location of ThiruvananthapuramLocation

Historic Weather in Thiruvananthapuram — Graph

°F

Thiruvananthapuram temperature yesterday

Maximum temperature yesterday: 90 °F (at 9:40 AM)
Minimum temperature yesterday: 77 °F (at 5:40 AM)
Average temperature yesterday: 85 °F

Past Weeks' High & Low Weather Summary

 TemperatureHumidityPressure
High90 °F (Apr 19, 2:40 PM)100% (Apr 21, 9:10 PM)29.89 "Hg (Apr 21, 9:10 PM)
Low73 °F (Apr 22, 4:40 AM)21% (May 2, 5:40 AM)29.71 "Hg (Apr 19, 2:40 PM)
Average83 °F76%29.81 "Hg
* Reported Apr 19 2:40 PM — May 4 3:10 PM, Thiruvananthapuram, Weather by CustomWeather, © 2015

Note: Actual official high and low records may vary slightly from our data, if they occured in-between our weather recording intervals... More about our weather records

Advertising

Thiruvananthapuram weather history for previous 24 hours

 ConditionsComfort  
Time TempWeatherWind HumidityBarometerVisibility
3:10 PM
Mon, May 4
86 °FThunderstorms. Scattered clouds.9 mph75%29.74 "Hg2 mi
2:10 PM86 °FScattered clouds.12 mph75%29.74 "Hg2 mi
1:40 PM86 °FHaze.12 mph70%29.77 "Hg2 mi
1:10 PM86 °FScattered clouds.9 mph70%29.77 "Hg2 mi
12:10 PM90 °FScattered clouds.12 mph63%29.80 "Hg3 mi
11:40 AM90 °FScattered clouds.9 mph63%29.83 "Hg3 mi
10:40 AM90 °FScattered clouds.9 mph63%29.83 "Hg3 mi
10:10 AM90 °FScattered clouds.8 mph63%29.83 "Hg3 mi
9:40 AM88 °FScattered clouds.7 mph66%29.83 "Hg3 mi
9:10 AM88 °FPassing clouds.8 mph66%29.83 "Hg3 mi
8:10 AM88 °FHaze.7 mph66%29.83 "Hg2 mi
7:10 AM81 °FHaze.5 mph79%29.80 "Hg2 mi
5:40 AM79 °FPassing clouds.3 mph79%29.77 "Hg2 mi
5:10 AM79 °FPassing clouds.3 mph79%29.77 "Hg2 mi
4:40 AM79 °FPassing clouds.3 mph79%29.74 "Hg2 mi
4:10 AM79 °FPassing clouds.3 mph79%29.74 "Hg2 mi
3:40 AM79 °FPassing clouds.3 mph79%29.74 "Hg2 mi
3:10 AM79 °FPassing clouds.3 mph79%29.74 "Hg2 mi
2:40 AM79 °FPassing clouds.3 mph79%29.74 "Hg2 mi
1:40 AM79 °FPassing clouds.No wind79%29.77 "Hg2 mi
11:40 PM
Sun, May 3
81 °FPassing clouds.3 mph74%29.80 "Hg2 mi
8:40 PM82 °FPassing clouds.9 mph74%29.77 "Hg2 mi
8:10 PM82 °FHaze.9 mph74%29.77 "Hg2 mi
7:40 PM84 °FPassing clouds.9 mph70%29.77 "Hg2 mi
7:10 PM84 °FHaze.12 mph70%29.77 "Hg2 mi
6:40 PM84 °FPassing clouds.12 mph70%29.74 "Hg2 mi
5:40 PM86 °FPassing clouds.12 mph66%29.74 "Hg4 mi
5:10 PM86 °FPassing clouds.12 mph66%29.71 "Hg4 mi
4:10 PM88 °FPassing clouds.12 mph62%29.71 "Hg4 mi
Weather by CustomWeather, © 2015

See weather overviewHow to use our weather pages